Weather History for Faribault, MN

Change the Weather History Date:

Monday, February 3, 2014

  Actual Average Record
Temperature  
Mean Temperature 9 °F -  
Max Temperature 17 °F 23 °F 50 °F (2005)
Min Temperature 0 °F 0 °F -26 °F (1985)
Degree Days  
Heating Degree Days 56    
Moisture  
Dew Point -2 °F    
Average Humidity 64    
Maximum Humidity 72    
Minimum Humidity 53    
Precipitation  
Precipitation 0.00 in - - ()
Sea Level Pressure  
Sea Level Pressure 30.23 in    
Wind  
Wind Speed 5 mph (SSW)    
Max Wind Speed 9 mph    
Max Gust Speed -    
Visibility 10 miles    
Events      
Averages and records for this station are not official NWS values.
T = Trace of Precipitation, MM = Missing Value Source: NWS Daily Summary

Daily Weather History Graph

Daily Weather History Graph

Search for Another Location

Airport:

Trip Planner

Search our weather history database for the weather conditions in past years. The results will help you decide how hot, cold, wet, or windy it might be!

Date:

Astronomy

Feb. 03, 2014 Rise Set
Actual Time 7:29 AM CST 5:25 PM CST
Civil Twilight 6:58 AM CST 5:56 PM CST
Nautical Twilight 6:23 AM CST 6:31 PM CST
Astronomical Twilight 5:49 AM CST 7:05 PM CST
Moon 9:20 AM CST (2/3) 10:29 PM CST (2/3)
Length of Visible Light 10h 58m
Length of Day
9h 56m
Waxing Crescent, 20% of the Moon is Illuminated
Feb 3
Waxing Crescent
Feb 6
First Quarter
Feb 14
Full
Feb 22
Last Quarter
Mar 1
New

Hourly Weather History & Observations

Time (CST) Temp. Windchill Dew Point Humidity Pressure Visibility Wind Dir Wind Speed Gust Speed Precip Events Conditions
12:14 AM 3.2 °F -7.8 °F -4.0 °F 72% 30.20 in 10.0 mi South 5.8 mph - N/A   Clear
12:34 AM 3.2 °F -6.2 °F -4.0 °F 72% 30.19 in 10.0 mi South 4.6 mph - N/A   Clear
12:54 AM 5.0 °F -6.9 °F -2.2 °F 72% 30.19 in 10.0 mi South 6.9 mph - N/A   Clear
1:14 AM 5.0 °F -4.1 °F -4.0 °F 66% 30.19 in 10.0 mi South 4.6 mph - N/A   Clear
1:33 AM 5.0 °F -5.6 °F -4.0 °F 66% 30.18 in 10.0 mi South 5.8 mph - N/A   Clear
1:54 AM 3.2 °F -6.2 °F -4.0 °F 72% 30.18 in 10.0 mi South 4.6 mph - N/A   Clear
2:14 AM 3.2 °F -7.8 °F -4.0 °F 72% 30.18 in 10.0 mi South 5.8 mph - N/A   Clear
2:34 AM 3.2 °F -6.2 °F -4.0 °F 72% 30.18 in 10.0 mi South 4.6 mph - N/A   Clear
2:54 AM 3.2 °F -7.8 °F -4.0 °F 72% 30.18 in 10.0 mi South 5.8 mph - N/A   Clear
3:14 AM 5.0 °F -8.1 °F -4.0 °F 66% 30.18 in 10.0 mi South 8.1 mph - N/A   Clear
3:34 AM 5.0 °F -9.1 °F -4.0 °F 66% 30.17 in 10.0 mi South 9.2 mph - N/A   Clear
3:54 AM 3.2 °F -11.3 °F -4.0 °F 72% 30.17 in 10.0 mi South 9.2 mph - N/A   Clear
4:14 AM 5.0 °F -8.1 °F -4.0 °F 66% 30.17 in 10.0 mi South 8.1 mph - N/A   Clear
4:34 AM 5.0 °F -6.9 °F -4.0 °F 66% 30.17 in 10.0 mi South 6.9 mph - N/A   Clear
4:54 AM 3.2 °F -10.3 °F -4.0 °F 72% 30.16 in 10.0 mi South 8.1 mph - N/A   Clear
5:14 AM 3.2 °F -9.1 °F -5.8 °F 66% 30.17 in 10.0 mi South 6.9 mph - N/A   Clear
5:34 AM 3.2 °F -7.8 °F -5.8 °F 66% 30.17 in 10.0 mi South 5.8 mph - N/A   Clear
5:54 AM 3.2 °F -10.3 °F -5.8 °F 66% 30.17 in 10.0 mi South 8.1 mph - N/A   Clear
6:14 AM 1.4 °F -8.3 °F -5.8 °F 72% 30.17 in 10.0 mi South 4.6 mph - N/A   Clear
6:34 AM 1.4 °F -9.9 °F -5.8 °F 72% 30.17 in 10.0 mi South 5.8 mph - N/A   Clear
6:54 AM 1.4 °F -13.5 °F -7.6 °F 66% 30.17 in 10.0 mi South 9.2 mph - N/A   Clear
7:14 AM 1.4 °F -9.9 °F -7.6 °F 66% 30.17 in 10.0 mi South 5.8 mph - N/A   Clear
7:34 AM 1.4 °F -12.5 °F -7.6 °F 66% 30.17 in 10.0 mi South 8.1 mph - N/A   Clear
7:54 AM 1.4 °F -9.9 °F -7.6 °F 66% 30.17 in 10.0 mi South 5.8 mph - N/A   Clear
8:13 AM 1.4 °F -8.3 °F -7.6 °F 66% 30.18 in 10.0 mi South 4.6 mph - N/A   Clear
8:34 AM 1.4 °F -6.2 °F -7.6 °F 66% 30.19 in 10.0 mi South 3.5 mph - N/A   Clear
8:54 AM 3.2 °F -6.2 °F -5.8 °F 66% 30.20 in 10.0 mi South 4.6 mph - N/A   Clear
9:14 AM 5.0 °F -2.1 °F -4.0 °F 66% 30.21 in 10.0 mi South 3.5 mph - N/A   Clear
9:34 AM 6.8 °F -0.1 °F -2.2 °F 67% 30.21 in 10.0 mi SSW 3.5 mph - N/A   Clear
9:54 AM 8.6 °F 0.1 °F -2.2 °F 62% 30.21 in 10.0 mi South 4.6 mph - N/A   Clear
10:14 AM 10.4 °F 2.2 °F -0.4 °F 62% 30.21 in 10.0 mi South 4.6 mph - N/A   Clear
10:34 AM 12.2 °F 2.9 °F 1.4 °F 62% 30.21 in 10.0 mi SSW 5.8 mph - N/A   Clear
10:54 AM 12.2 °F 2.9 °F 1.4 °F 62% 30.21 in 10.0 mi SSW 5.8 mph - N/A   Clear
11:14 AM 14.0 °F 3.9 °F 1.4 °F 57% 30.22 in 10.0 mi SSW 6.9 mph - N/A   Clear
11:34 AM 15.8 °F 7.2 °F 1.4 °F 53% 30.22 in 10.0 mi WSW 5.8 mph - N/A   Clear
11:54 AM 15.8 °F 8.6 °F 1.4 °F 53% 30.22 in 10.0 mi SW 4.6 mph - N/A   Clear
12:14 PM 15.8 °F 10.2 °F 1.4 °F 53% 30.22 in 10.0 mi WSW 3.5 mph - N/A   Clear
12:34 PM 15.8 °F 8.6 °F 1.4 °F 53% 30.21 in 10.0 mi SW 4.6 mph - N/A   Clear
12:54 PM 17.6 °F 7.3 °F 3.2 °F 53% 30.21 in 10.0 mi WSW 8.1 mph - N/A   Clear
1:14 PM 17.6 °F 9.3 °F 3.2 °F 53% 30.21 in 10.0 mi WSW 5.8 mph - N/A   Clear
1:34 PM 15.8 °F 6.1 °F 3.2 °F 58% 30.21 in 10.0 mi WSW 6.9 mph - N/A   Clear
1:54 PM 17.6 °F 8.2 °F 3.2 °F 53% 30.22 in 10.0 mi WSW 6.9 mph - N/A   Clear
2:14 PM 17.6 °F 9.3 °F 3.2 °F 53% 30.22 in 10.0 mi WSW 5.8 mph - N/A   Clear
2:34 PM 17.6 °F 10.7 °F 3.2 °F 53% 30.22 in 10.0 mi WSW 4.6 mph - N/A   Clear
2:54 PM 17.6 °F 12.3 °F 3.2 °F 53% 30.23 in 10.0 mi West 3.5 mph - N/A   Clear
3:14 PM 17.6 °F 8.2 °F 3.2 °F 53% 30.23 in 10.0 mi West 6.9 mph - N/A   Clear
3:34 PM 17.6 °F 9.3 °F 3.2 °F 53% 30.24 in 10.0 mi WNW 5.8 mph - N/A   Clear
3:54 PM 17.6 °F 10.7 °F 3.2 °F 53% 30.24 in 10.0 mi NW 4.6 mph - N/A   Clear
4:14 PM 17.6 °F 10.7 °F 3.2 °F 53% 30.25 in 10.0 mi NW 4.6 mph - N/A   Clear
4:34 PM 15.8 °F 10.2 °F 3.2 °F 58% 30.25 in 10.0 mi NW 3.5 mph - N/A   Clear
4:54 PM 15.8 °F - 3.2 °F 58% 30.26 in 10.0 mi Calm Calm - N/A   Clear
5:14 PM 15.8 °F 10.2 °F 3.2 °F 58% 30.26 in 10.0 mi WNW 3.5 mph - N/A   Clear
5:34 PM 15.8 °F 10.2 °F 3.2 °F 58% 30.26 in 10.0 mi WSW 3.5 mph - N/A   Scattered Clouds
5:54 PM 15.8 °F 10.2 °F 3.2 °F 58% 30.27 in 10.0 mi West 3.5 mph - N/A   Clear
6:14 PM 14.0 °F - 3.2 °F 62% 30.27 in 10.0 mi Calm Calm - N/A   Clear
6:34 PM 12.2 °F - 1.4 °F 62% 30.27 in 10.0 mi Calm Calm - N/A   Mostly Cloudy
6:53 PM 12.2 °F - 1.4 °F 62% 30.28 in 10.0 mi Calm Calm - N/A   Overcast
7:14 PM 6.8 °F -0.1 °F -4.0 °F 61% 30.27 in 10.0 mi NW 3.5 mph - N/A   Mostly Cloudy
7:33 PM 6.8 °F - -2.2 °F 67% 30.27 in 10.0 mi Calm Calm - N/A   Scattered Clouds
7:54 PM 3.2 °F - -4.0 °F 72% 30.27 in 10.0 mi Calm Calm - N/A   Clear
8:14 PM 6.8 °F -3.5 °F -2.2 °F 67% 30.29 in 10.0 mi WSW 5.8 mph - N/A   Clear
8:34 PM 3.2 °F -4.2 °F -5.8 °F 66% 30.29 in 10.0 mi West 3.5 mph - N/A   Clear
8:54 PM 3.2 °F - -4.0 °F 72% 30.29 in 10.0 mi Calm Calm - N/A   Clear
9:13 PM 3.2 °F - -5.8 °F 66% 30.29 in 10.0 mi Calm Calm - N/A   Scattered Clouds
9:34 PM 1.4 °F - -5.8 °F 72% 30.29 in 10.0 mi Calm Calm - N/A   Mostly Cloudy
9:54 PM 3.2 °F - -4.0 °F 72% 30.31 in 10.0 mi Calm Calm - N/A   Scattered Clouds
10:14 PM 1.4 °F - -5.8 °F 72% 30.32 in 10.0 mi Calm Calm - N/A   Scattered Clouds
10:34 PM 1.4 °F - -5.8 °F 72% 30.32 in 10.0 mi Calm Calm - N/A   Scattered Clouds
10:54 PM 1.4 °F -6.2 °F -5.8 °F 72% 30.32 in 10.0 mi WNW 3.5 mph - N/A   Scattered Clouds
11:14 PM 5.0 °F - -2.2 °F 72% 30.34 in 10.0 mi Calm Calm - N/A   Clear
11:33 PM 1.4 °F - -5.8 °F 72% 30.34 in 10.0 mi Calm Calm - N/A   Clear
11:54 PM -0.4 °F - -7.6 °F 72% 30.34 in 10.0 mi Calm Calm - N/A   Scattered Clouds